FW5243 Weather Reports


time (UTC)temp
C
wind
direction
speed
KPH
gust
KPH
rain 1hr
cm
rain 24hr
cm
rain mn
cm
humidity
%
barometer
mb
20260504081517 7 143 1.6 9.7 0.00 0.00 0.00 63 1014.9
20260504050001 6 128 0.0 3.2 0.00 0.00 0.00 67 1014.9
20260504044500 6 121 0.0 3.2 0.00 0.00 0.00 66 1015.0
20260504043112 7 121 0.0 4.8 0.00 0.00 0.00 65 1014.9
20260504041556 7 123 0.0 6.4 0.00 0.00 0.00 64 1014.7
20260504040113 7 121 0.0 6.4 0.00 0.00 0.00 63 1014.7
20260504034554 7 158 0.0 4.8 0.00 0.00 0.00 63 1014.7
20260504033053 7 102 0.0 3.2 0.00 0.00 0.00 62 1014.6
20260504031557 7 153 0.0 4.8 0.00 0.00 0.00 61 1014.6
20260504030051 7 122 0.0 4.8 0.00 0.00 0.00 61 1014.7
20260504024551 7 130 0.0 3.2 0.00 0.00 0.00 62 1014.7
20260504023059 7 132 0.0 1.6 0.00 0.00 0.00 63 1014.7
20260504021552 8 130 0.0 4.8 0.00 0.00 0.00 61 1014.8
20260504020049 8 138 1.6 6.4 0.00 0.00 0.00 59 1014.7
20260504014600 8 152 1.6 3.2 0.00 0.00 0.00 61 1014.7
20260504013051 8 152 0.0 3.2 0.00 0.00 0.00 61 1014.5
20260504011549 8 152 0.0 3.2 0.00 0.00 0.00 60 1014.5
20260504010053 8 137 1.6 4.8 0.00 0.00 0.00 58 1014.4
20260504004552 8 360 0.0 0.0 0.00 0.00 0.00 61 1014.2
20260504003055 8 360 0.0 0.0 0.00 0.00 0.00 59 1014.2
20260504001602 9 360 0.0 0.0 0.00 0.00 0.00 56 1014.1
20260504000056 10 360 0.0 0.0 0.00 0.00 0.00 58 1013.9
20260503234545 11 360 0.0 1.6 0.00 0.00 0.00 55 1013.9
20260503233046 11 360 0.0 0.0 0.00 0.00 0.00 56 1013.8
20260503231544 11 360 0.0 4.8 0.00 0.00 0.00 52 1013.9
20260503230048 11 360 1.6 8.0 0.00 0.00 0.00 51 1013.7
20260503224545 12 63 3.2 19.3 0.00 0.00 0.00 52 1013.6
20260503223043 12 82 4.8 14.5 0.00 0.00 0.00 48 1013.7
20260503221551 12 184 8.0 16.1 0.00 0.00 0.00 52 1013.6
20260503220041 12 118 4.8 20.9 0.00 0.00 0.00 46 1013.6
20260503214540 12 78 6.4 16.1 0.00 0.00 0.00 50 1013.7
20260503213040 12 96 6.4 12.9 0.00 0.00 0.00 48 1013.5
20260503211539 12 60 6.4 12.9 0.00 0.00 0.00 52 1013.7
20260503210038 12 163 6.4 24.1 0.00 0.00 0.00 48 1013.6
20260503204541 12 26 8.0 22.5 0.00 0.00 0.00 48 1013.5
20260503203036 12 59 11.3 22.5 0.00 0.00 0.00 47 1013.6
20260503201536 12 105 6.4 19.3 0.00 0.00 0.00 51 1013.5
20260503200035 12 86 6.4 22.5 0.00 0.00 0.00 48 1013.6
20260503194534 12 144 8.0 16.1 0.00 0.00 0.00 43 1013.7
20260503193040 12 121 6.4 17.7 0.00 0.00 0.00 45 1014.1
20260503191531 12 133 8.0 20.9 0.00 0.00 0.00 50 1014.3
20260503190028 12 210 4.8 22.5 0.00 0.00 0.00 45 1014.4
20260503184527 12 326 3.2 22.5 0.00 0.00 0.00 50 1014.8
20260503183021 11 60 1.6 14.5 0.00 0.00 0.00 49 1015.0
20260503181518 11 17 8.0 20.9 0.00 0.00 0.00 44 1015.3
20260503180020 11 50 8.0 19.3 0.00 0.00 0.00 49 1015.2
20260503174513 10 360 4.8 19.3 0.00 0.00 0.00 56 1015.6
20260503173022 10 47 8.0 20.9 0.00 0.00 0.00 47 1015.8
20260503171520 8 14 6.4 16.1 0.00 0.00 0.00 50 1016.0
20260503150111 8 96 9.7 20.9 0.00 0.00 0.00 57 1016.5